When you browse on this site, cookies collect data to enhance your experience and personalize the content and advertising you see.
Visit our Privacy Policy to learn more. By continuing to use the site, you agree to this use of cookies and data.
  • In Netherlands
  • List of Countries
  • For 7 days
  • Water Temperature
  • Satellite Maps
  • Weather Map
  • Weather Widgets
  • user-avatar
    Login

    Hourly Weather Khulna

    Today, 21 March, Thursday

    Time Temperature Precipitation Wind Pressure Humidity
    00:00 +26°C° 0 mm 2 mps 757 mmHg 68%
    01:00 +26°C° 0 mm 2 mps 757 mmHg 73%
    02:00 +26°C° 0 mm 2 mps 757 mmHg 77%
    03:00 +25°C° 0 mm 2 mps 756 mmHg 81%
    04:00 +25°C° 0 mm 2 mps 757 mmHg 84%
    05:00 +25°C° 0 mm 2 mps 757 mmHg 87%
    06:00 +24°C° 0 mm 2 mps 757 mmHg 94%
    07:00 +27°C° 0 mm 2 mps 757 mmHg 82%
    08:00 +29°C° 0 mm 3 mps 758 mmHg 71%
    09:00 +33°C° 0 mm 3 mps 758 mmHg 59%
    10:00 +35°C° 0 mm 3 mps 758 mmHg 46%
    11:00 +37°C° 0 mm 3 mps 758 mmHg 33%
    12:00 +39°C° 0 mm 3 mps 758 mmHg 20%
    13:00 +39°C° 0 mm 3 mps 757 mmHg 19%
    14:00 +40°C° 0 mm 3 mps 757 mmHg 18%
    15:00 +40°C° 0 mm 3 mps 756 mmHg 16%
    16:00 +39°C° 0 mm 2 mps 756 mmHg 19%
    17:00 +37°C° 0 mm 2 mps 756 mmHg 21%
    18:00 +36°C° 0 mm 2 mps 755 mmHg 23%
    19:00 +34°C° 0 mm 3 mps 756 mmHg 32%
    20:00 +33°C° 0 mm 3 mps 756 mmHg 41%
    21:00 +30°C° 0 mm 4 mps 757 mmHg 50%
    22:00 +30°C° 0 mm 4 mps 757 mmHg 53%
    23:00 +30°C° 0 mm 5 mps 757 mmHg 55%

    Tomorrow, 22 March, Friday

    Time Temperature Precipitation Wind Pressure Humidity
    00:00 +29°C° 0 mm 5 mps 757 mmHg 58%
    01:00 +29°C° 0 mm 4 mps 756 mmHg 61%
    02:00 +29°C° 0 mm 4 mps 756 mmHg 64%
    03:00 +28°C° 0 mm 3 mps 756 mmHg 66%
    04:00 +28°C° 0 mm 3 mps 756 mmHg 69%
    05:00 +27°C° 0 mm 3 mps 756 mmHg 72%
    06:00 +27°C° 0 mm 3 mps 756 mmHg 75%
    07:00 +29°C° 0 mm 3 mps 756 mmHg 68%
    08:00 +31°C° 0 mm 3 mps 757 mmHg 61%
    09:00 +34°C° 0 mm 3 mps 758 mmHg 54%
    10:00 +36°C° 0 mm 4 mps 758 mmHg 46%
    11:00 +39°C° 0 mm 5 mps 757 mmHg 38%
    12:00 +41°C° 0 mm 5 mps 757 mmHg 30%
    13:00 +40°C° 0 mm 5 mps 756 mmHg 32%
    14:00 +37°C° 0 mm 4 mps 756 mmHg 34%
    15:00 +36°C° 0 mm 4 mps 755 mmHg 36%
    16:00 +36°C° 0 mm 3 mps 754 mmHg 34%
    17:00 +36°C° 0 mm 3 mps 754 mmHg 32%
    18:00 +36°C° 0 mm 2 mps 754 mmHg 30%
    19:00 +35°C° 0 mm 3 mps 755 mmHg 37%
    20:00 +33°C° 0 mm 4 mps 755 mmHg 44%
    21:00 +32°C° 0 mm 4 mps 756 mmHg 51%
    22:00 +30°C° 0.1 mm 4 mps 756 mmHg 52%
    23:00 +30°C° 0.1 mm 3 mps 756 mmHg 54%

    Day after tomorrow, 23 March, Saturday

    Time Temperature Precipitation Wind Pressure Humidity
    00:00 +29°C° 0.1 mm 2 mps 755 mmHg 55%
    01:00 +28°C° 0 mm 2 mps 755 mmHg 56%
    02:00 +28°C° 0 mm 2 mps 755 mmHg 57%
    03:00 +28°C° 0 mm 2 mps 755 mmHg 57%
    04:00 +27°C° 0 mm 2 mps 755 mmHg 63%
    05:00 +27°C° 0 mm 1 mps 755 mmHg 68%
    06:00 +26°C° 0 mm 1 mps 755 mmHg 73%
    07:00 +29°C° 0 mm 2 mps 756 mmHg 63%
    08:00 +31°C° 0 mm 2 mps 757 mmHg 53%
    09:00 +34°C° 0 mm 3 mps 758 mmHg 42%
    10:00 +36°C° 0 mm 2 mps 757 mmHg 34%
    11:00 +38°C° 0 mm 2 mps 757 mmHg 26%
    12:00 +40°C° 0 mm 2 mps 757 mmHg 17%
    13:00 +40°C° 0 mm 3 mps 756 mmHg 16%
    14:00 +42°C° 0 mm 4 mps 755 mmHg 14%
    15:00 +42°C° 0 mm 4 mps 754 mmHg 13%
    16:00 +41°C° 0 mm 4 mps 754 mmHg 15%
    17:00 +38°C° 0 mm 4 mps 754 mmHg 17%
    18:00 +36°C° 0 mm 4 mps 754 mmHg 19%
    19:00 +35°C° 0 mm 3 mps 754 mmHg 20%
    20:00 +34°C° 0 mm 2 mps 755 mmHg 21%
    21:00 +31°C° 0 mm 1 mps 755 mmHg 22%
    22:00 +30°C° 0 mm 1 mps 755 mmHg 25%
    23:00 +30°C° 0 mm 1 mps 755 mmHg 28%

    24 March, Sunday

    Time Temperature Precipitation Wind Pressure Humidity
    00:00 +29°C° 0 mm 1 mps 755 mmHg 31%
    01:00 +28°C° 0 mm 1 mps 755 mmHg 30%
    02:00 +28°C° 0 mm 1 mps 755 mmHg 28%
    03:00 +27°C° 0 mm 2 mps 754 mmHg 27%
    04:00 +27°C° 0 mm 2 mps 755 mmHg 26%
    05:00 +26°C° 0 mm 2 mps 755 mmHg 24%
    06:00 +26°C° 0 mm 2 mps 755 mmHg 23%
    07:00 +28°C° 0 mm 2 mps 756 mmHg 20%
    08:00 +31°C° 0 mm 3 mps 757 mmHg 16%
    09:00 +35°C° 0 mm 3 mps 757 mmHg 13%
    10:00 +36°C° 0 mm 3 mps 757 mmHg 12%
    11:00 +38°C° 0 mm 3 mps 757 mmHg 10%
    12:00 +39°C° 0 mm 3 mps 756 mmHg 9%
    13:00 +40°C° 0 mm 3 mps 756 mmHg 8%
    14:00 +40°C° 0 mm 3 mps 755 mmHg 8%
    15:00 +42°C° 0 mm 4 mps 754 mmHg 8%
    16:00 +39°C° 0 mm 3 mps 754 mmHg 10%
    17:00 +37°C° 0 mm 3 mps 754 mmHg 12%
    18:00 +35°C° 0 mm 3 mps 754 mmHg 14%
    19:00 +34°C° 0 mm 2 mps 754 mmHg 15%
    20:00 +32°C° 0 mm 2 mps 755 mmHg 15%
    21:00 +31°C° 0 mm 2 mps 755 mmHg 16%
    22:00 +31°C° 0 mm 2 mps 755 mmHg 16%
    23:00 +30°C° 0 mm 2 mps 755 mmHg 17%

    25 March, Monday

    Time Temperature Precipitation Wind Pressure Humidity
    00:00 +29°C° 0 mm 2 mps 755 mmHg 17%
    01:00 +28°C° 0 mm 2 mps 755 mmHg 19%
    02:00 +28°C° 0 mm 2 mps 755 mmHg 22%
    03:00 +27°C° 0 mm 2 mps 754 mmHg 24%
    04:00 +26°C° 0 mm 2 mps 755 mmHg 27%
    05:00 +26°C° 0 mm 2 mps 755 mmHg 30%
    06:00 +26°C° 0 mm 2 mps 756 mmHg 33%
    07:00 +28°C° 0 mm 2 mps 756 mmHg 32%
    08:00 +31°C° 0 mm 3 mps 757 mmHg 32%
    09:00 +35°C° 0 mm 3 mps 758 mmHg 31%
    10:00 +37°C° 0 mm 3 mps 757 mmHg 25%
    11:00 +39°C° 0 mm 3 mps 757 mmHg 19%
    12:00 +42°C° 0 mm 3 mps 757 mmHg 13%
    13:00 +42°C° 0 mm 3 mps 756 mmHg 13%
    14:00 +43°C° 0 mm 4 mps 755 mmHg 12%
    15:00 +43°C° 0 mm 4 mps 754 mmHg 11%
    16:00 +42°C° 0 mm 4 mps 754 mmHg 13%
    17:00 +39°C° 0 mm 3 mps 754 mmHg 15%
    18:00 +37°C° 0 mm 3 mps 754 mmHg 17%
    19:00 +36°C° 0 mm 2 mps 755 mmHg 18%
    20:00 +35°C° 0 mm 2 mps 755 mmHg 18%
    21:00 +34°C° 0 mm 2 mps 756 mmHg 19%
    22:00 +32°C° 0 mm 2 mps 756 mmHg 23%
    23:00 +31°C° 0 mm 2 mps 756 mmHg 26%

    26 March, Tuesday

    Time Temperature Precipitation Wind Pressure Humidity
    00:00 +30°C° 0 mm 3 mps 756 mmHg 30%
    01:00 +29°C° 0 mm 3 mps 755 mmHg 33%
    02:00 +29°C° 0 mm 3 mps 755 mmHg 37%
    03:00 +28°C° 0 mm 3 mps 755 mmHg 41%
    04:00 +28°C° 0 mm 2 mps 755 mmHg 45%
    05:00 +27°C° 0 mm 2 mps 755 mmHg 49%
    06:00 +27°C° 0 mm 2 mps 756 mmHg 52%
    07:00 +29°C° 0 mm 2 mps 756 mmHg 46%
    08:00 +33°C° 0 mm 3 mps 757 mmHg 39%
    09:00 +36°C° 0 mm 3 mps 758 mmHg 32%
    10:00 +38°C° 0 mm 3 mps 757 mmHg 27%
    11:00 +40°C° 0 mm 3 mps 757 mmHg 21%
    12:00 +43°C° 0 mm 4 mps 757 mmHg 16%
    13:00 +44°C° 0 mm 4 mps 756 mmHg 15%
    14:00 +44°C° 0 mm 4 mps 755 mmHg 15%
    15:00 +45°C° 0 mm 5 mps 755 mmHg 14%
    16:00 +43°C° 0 mm 4 mps 754 mmHg 16%
    17:00 +41°C° 0 mm 4 mps 754 mmHg 19%
    18:00 +39°C° 0 mm 3 mps 754 mmHg 21%
    19:00 +37°C° 0 mm 4 mps 755 mmHg 25%
    20:00 +35°C° 0 mm 4 mps 755 mmHg 30%
    21:00 +34°C° 0 mm 5 mps 756 mmHg 34%
    22:00 +33°C° 0 mm 4 mps 756 mmHg 38%
    23:00 +33°C° 0 mm 3 mps 756 mmHg 41%
    Show more